QPF
0.03 0.05 0.06 0.03 0.02 0.01 0.01 0.01 0.00 0.00 0.00 0.00 0.00 0.00 0.00 0.00 0.00 0.00 0.00 0.00 0.00 0.00 0.00 0.00 0.00 0.00 0.00 0.00 0.00 0.00 0.00 0.00 0.00 0.00 0.00 0.00 0.00 0.00 0.00 0.00 0.00 0.00 0.01 0.02
0.03 0.02 0.02 0.01 0.01 0.01 0.01 0.01 0.00 0.00 0.00 0.00 0.00 0.00 0.00 0.00 0.00 0.00 0.00 0.00 0.00 0.00 0.00 0.00 0.00 0.00 0.00 0.00 0.00 0.00 0.00 0.00 0.00 0.00 0.00 0.00 0.00 0.00 0.00 0.00 0.00 0.00 0.01 0.01
0.01 0.01 0.02 0.02 0.01 0.01 0.01 0.01 0.01 0.00 0.00 0.00 0.00 0.00 0.00 0.00 0.00 0.00 0.00 0.00 0.00 0.00 0.00 0.00 0.00 0.00 0.00 0.00 0.00 0.00 0.00 0.00 0.00 0.00 0.00 0.00 0.00 0.00 0.00 0.00 0.00 0.00 0.01 0.01
0.01 0.01 0.01 0.01 0.01 0.01 0.02 0.01 0.00 0.00 0.00 0.00 0.00 0.00 0.00 0.00 0.00 0.00 0.00 0.00 0.00 0.00 0.00 0.00 0.00 0.00 0.00 0.00 0.00 0.00 0.00 0.00 0.00 0.00 0.00 0.00 0.00 0.00 0.00 0.00 0.00 0.00 0.00 0.00
0.00 0.01 0.01 0.01 0.01 0.02 0.03 0.02 0.01 0.00 0.00 0.00 0.00 0.00 0.00 0.00 0.00 0.00 0.00 0.00 0.00 0.00 0.00 0.00 0.00 0.00 0.00 0.00 0.00 0.00 0.00 0.00 0.00 0.00 0.00 0.00 0.00 0.00 0.00 0.00 0.00 0.00 0.00 0.00
0.01 0.01 0.01 0.02 0.03 0.03 0.03 0.02 0.01 0.00 0.00 0.00 0.00 0.00 0.00 0.00 0.00 0.00 0.00 0.00 0.00 0.00 0.00 0.00 0.00 0.00 0.00 0.00 0.00 0.00 0.00 0.00 0.00 0.00 0.00 0.00 0.00 0.00 0.00 0.00 0.00 0.00 0.00 0.00
0.01 0.01 0.01 0.02 0.02 0.01 0.01 0.01 0.01 0.00 0.00 0.00 0.00 0.00 0.00 0.00 0.00 0.00 0.00 0.00 0.00 0.00 0.00 0.00 0.00 0.00 0.00 0.00 0.00 0.00 0.00 0.00 0.00 0.00 0.00 0.00 0.00 0.00 0.00 0.00 0.00 0.00 0.00 0.00
0.00 0.01 0.01 0.01 0.01 0.01 0.01 0.01 0.00 0.00 0.00 0.00 0.00 0.00 0.00 0.00 0.00 0.00 0.00 0.00 0.00 0.00 0.00 0.00 0.00 0.00 0.00 0.00 0.00 0.00 0.00 0.00 0.00 0.00 0.00 0.00 0.00 0.00 0.00 0.00 0.00 0.00 0.00 0.00
0.00 0.00 0.00 0.00 0.00 0.00 0.01 0.00 0.00 0.00 0.00 0.00 0.00 0.00 0.00 0.00 0.00 0.00 0.00 0.00 0.00 0.00 0.00 0.00 0.00 0.00 0.00 0.00 0.00 0.00 0.00 0.00 0.00 0.00 0.00 0.00 0.00 0.00 0.00 0.00 0.00 0.00 0.00 0.00
0.00 0.00 0.00 0.00 0.00 0.00 0.00 0.00 0.00 0.00 0.00 0.00 0.00 0.00 0.00 0.00 0.00 0.00 0.00 0.00 0.00 0.00 0.00 0.00 0.00 0.00 0.00 0.00 0.00 0.00 0.00 0.00 0.00 0.00 0.00 0.00 0.00 0.00 0.00 0.00 0.00 0.00 0.00 0.00
0.00 0.00 0.00 0.00 0.00 0.00 0.00 0.00 0.00 0.00 0.00 0.00 0.00 0.00 0.00 0.00 0.00 0.00 0.00 0.00 0.00 0.00 0.00 0.00 0.00 0.00 0.00 0.00 0.00 0.00 0.00 0.00 0.00 0.00 0.00 0.00 0.00 0.00 0.00 0.00 0.00 0.00 0.00 0.00
0.00 0.00 0.00 0.00 0.00 0.00 0.00 0.00 0.00 0.00 0.00 0.00 0.00 0.00 0.00 0.00 0.00 0.00 0.00 0.00 0.00 0.00 0.00 0.00 0.00 0.00 0.00 0.00 0.00 0.00 0.00 0.00 0.00 0.00 0.00 0.00 0.00 0.00 0.00 0.00 0.00 0.00 0.00 0.00
0.00 0.00 0.00 0.00 0.00 0.00 0.00 0.00 0.00 0.00 0.00 0.00 0.00 0.00 0.00 0.00 0.00 0.00 0.00 0.00 0.00 0.00 0.00 0.00 0.00 0.00 0.00 0.00 0.00 0.00 0.00 0.00 0.00 0.00 0.00 0.00 0.00 0.00 0.00 0.00 0.00 0.00 0.00 0.00
0.00 0.00 0.00 0.00 0.00 0.00 0.00 0.00 0.00 0.00 0.00 0.00 0.00 0.00 0.00 0.00 0.00 0.00 0.00 0.00 0.00 0.00 0.00 0.00 0.00 0.00 0.00 0.00 0.00 0.00 0.00 0.00 0.00 0.00 0.00 0.00 0.00 0.00 0.00 0.00 0.00 0.00 0.00 0.00
0.00 0.00 0.00 0.00 0.00 0.00 0.00 0.00 0.00 0.00 0.00 0.00 0.00 0.00 0.00 0.00 0.00 0.00 0.00 0.00 0.00 0.00 0.00 0.00 0.00 0.00 0.00 0.00 0.00 0.00 0.00 0.00 0.00 0.00 0.00 0.00 0.00 0.00 0.00 0.00 0.00 0.00 0.00 0.00
0.00 0.00 0.00 0.00 0.00 0.00 0.00 0.00 0.00 0.00 0.00 0.00 0.00 0.00 0.00 0.00 0.00 0.00 0.00 0.00 0.00 0.00 0.00 0.00 0.00 0.00 0.00 0.00 0.00 0.00 0.00 0.00 0.00 0.00 0.00 0.00 0.00 0.00 0.00 0.00 0.00 0.00 0.00 0.00
0.00 0.00 0.00 0.00 0.00 0.00 0.00 0.00 0.00 0.00 0.00 0.00 0.00 0.00 0.00 0.00 0.00 0.00 0.00 0.00 0.00 0.00 0.00 0.00 0.00 0.00 0.00 0.00 0.00 0.00 0.00 0.00 0.00 0.00 0.00 0.00 0.00 0.00 0.00 0.00 0.00 0.00 0.00 0.00
0.00 0.00 0.00 0.00 0.00 0.00 0.00 0.00 0.00 0.00 0.00 0.00 0.00 0.00 0.00 0.00 0.00 0.00 0.00 0.00 0.00 0.00 0.00 0.00 0.00 0.00 0.00 0.00 0.00 0.00 0.00 0.00 0.00 0.00 0.00 0.00 0.00 0.00 0.00 0.00 0.00 0.00 0.00 0.00
0.00 0.00 0.00 0.00 0.00 0.00 0.00 0.00 0.00 0.00 0.00 0.00 0.00 0.00 0.00 0.00 0.00 0.00 0.00 0.00 0.00 0.00 0.00 0.00 0.00 0.00 0.00 0.00 0.00 0.00 0.00 0.00 0.00 0.00 0.00 0.00 0.00 0.00 0.00 0.00 0.00 0.00 0.00 0.00
0.00 0.00 0.00 0.00 0.00 0.00 0.00 0.00 0.00 0.00 0.00 0.00 0.00 0.00 0.00 0.00 0.00 0.00 0.00 0.00 0.00 0.00 0.00 0.00 0.00 0.00 0.00 0.00 0.00 0.00 0.00 0.00 0.00 0.00 0.00 0.00 0.00 0.00 0.00 0.00 0.00 0.00 0.00 0.00
0.00 0.00 0.00 0.00 0.00 0.00 0.00 0.00 0.00 0.00 0.00 0.00 0.00 0.00 0.00 0.00 0.00 0.00 0.00 0.00 0.00 0.00 0.00 0.00 0.00 0.00 0.00 0.00 0.00 0.00 0.00 0.00 0.00 0.00 0.00 0.00 0.00 0.00 0.00 0.00 0.00 0.00 0.00 0.00
0.00 0.00 0.00 0.00 0.00 0.00 0.00 0.00 0.00 0.00 0.00 0.00 0.00 0.00 0.00 0.00 0.00 0.00 0.00 0.00 0.00 0.00 0.00 0.00 0.00 0.00 0.00 0.00 0.00 0.00 0.00 0.00 0.00 0.00 0.00 0.00 0.00 0.00 0.00 0.00 0.00 0.00 0.00 0.00
0.00 0.00 0.00 0.00 0.00 0.00 0.00 0.00 0.00 0.00 0.00 0.00 0.00 0.00 0.00 0.00 0.00 0.00 0.00 0.00 0.00 0.00 0.00 0.00 0.00 0.00 0.00 0.00 0.00 0.00 0.00 0.00 0.00 0.00 0.00 0.00 0.00 0.00 0.00 0.00 0.00 0.00 0.00 0.00
0.00 0.00 0.00 0.00 0.00 0.00 0.00 0.00 0.00 0.00 0.00 0.00 0.00 0.00 0.00 0.00 0.00 0.00 0.00 0.00 0.00 0.00 0.00 0.00 0.00 0.00 0.00 0.00 0.00 0.00 0.00 0.00 0.00 0.00 0.00 0.00 0.00 0.00 0.00 0.00 0.00 0.00 0.00 0.00
0.00 0.00 0.00 0.00 0.00 0.00 0.00 0.00 0.00 0.00 0.00 0.00 0.00 0.00 0.00 0.00 0.00 0.00 0.00 0.00 0.00 0.00 0.00 0.00 0.00 0.00 0.00 0.00 0.00 0.00 0.00 0.00 0.00 0.00 0.00 0.00 0.00 0.00 0.00 0.00 0.00 0.00 0.00 0.00
0.00 0.00 0.00 0.00 0.00 0.00 0.00 0.00 0.00 0.00 0.00 0.00 0.00 0.00 0.00 0.00 0.00 0.00 0.00 0.00 0.00 0.00 0.00 0.00 0.00 0.00 0.00 0.00 0.00 0.00 0.00 0.00 0.00 0.00 0.00 0.00 0.00 0.00 0.00 0.00 0.00 0.00 0.00 0.00
MSLP
1010.82 1011.55 1012.18 1012.69 1013.06 1013.31 1013.46 1013.54 1013.57 1013.55 1013.46 1013.32 1013.10 1012.81 1012.47 1012.11 1011.77 1011.51 1011.37 1011.37 1011.51 1011.78 1012.15 1012.57 1012.99 1013.37 1013.68 1013.93 1014.11 1014.25 1014.36 1014.47 1014.59 1014.71 1014.82 1014.91 1014.96 1014.96 1014.91 1014.81 1014.67 1014.52 1014.36 1014.20
1011.32 1011.94 1012.44 1012.83 1013.10 1013.28 1013.40 1013.48 1013.52 1013.51 1013.45 1013.29 1013.05 1012.72 1012.32 1011.89 1011.50 1011.20 1011.04 1011.03 1011.20 1011.50 1011.90 1012.35 1012.79 1013.18 1013.50 1013.76 1013.96 1014.13 1014.28 1014.45 1014.62 1014.81 1014.97 1015.10 1015.18 1015.18 1015.12 1015.01 1014.88 1014.73 1014.59 1014.48
1011.76 1012.26 1012.64 1012.91 1013.10 1013.23 1013.33 1013.42 1013.49 1013.50 1013.45 1013.29 1013.01 1012.62 1012.15 1011.65 1011.19 1010.85 1010.65 1010.64 1010.82 1011.14 1011.57 1012.04 1012.50 1012.91 1013.25 1013.53 1013.76 1013.96 1014.17 1014.40 1014.64 1014.88 1015.10 1015.26 1015.35 1015.36 1015.30 1015.18 1015.03 1014.89 1014.77 1014.69
1012.10 1012.47 1012.74 1012.92 1013.05 1013.17 1013.29 1013.41 1013.51 1013.57 1013.52 1013.34 1013.02 1012.56 1012.00 1011.42 1010.88 1010.47 1010.23 1010.20 1010.37 1010.70 1011.15 1011.64 1012.13 1012.56 1012.93 1013.23 1013.50 1013.75 1014.02 1014.31 1014.61 1014.91 1015.17 1015.36 1015.47 1015.48 1015.40 1015.27 1015.11 1014.97 1014.87 1014.81
1012.26 1012.52 1012.70 1012.83 1012.95 1013.10 1013.27 1013.46 1013.63 1013.73 1013.70 1013.51 1013.13 1012.59 1011.93 1011.24 1010.60 1010.10 1009.80 1009.73 1009.88 1010.21 1010.67 1011.18 1011.69 1012.15 1012.55 1012.89 1013.19 1013.49 1013.81 1014.15 1014.50 1014.85 1015.14 1015.36 1015.48 1015.49 1015.41 1015.26 1015.10 1014.96 1014.86 1014.82
1012.22 1012.40 1012.53 1012.65 1012.81 1013.02 1013.29 1013.58 1013.83 1013.99 1013.99 1013.77 1013.34 1012.70 1011.94 1011.13 1010.38 1009.78 1009.41 1009.28 1009.40 1009.72 1010.18 1010.71 1011.23 1011.72 1012.14 1012.52 1012.86 1013.19 1013.55 1013.92 1014.31 1014.68 1015.00 1015.24 1015.37 1015.38 1015.30 1015.15 1014.99 1014.85 1014.76 1014.73
1012.02 1012.13 1012.25 1012.40 1012.63 1012.95 1013.33 1013.74 1014.09 1014.32 1014.34 1014.10 1013.61 1012.89 1012.02 1011.09 1010.23 1009.53 1009.08 1008.89 1008.97 1009.27 1009.73 1010.26 1010.80 1011.31 1011.76 1012.15 1012.52 1012.87 1013.24 1013.63 1014.03 1014.41 1014.74 1014.98 1015.12 1015.14 1015.06 1014.93 1014.78 1014.64 1014.56 1014.55
1011.69 1011.78 1011.91 1012.12 1012.44 1012.87 1013.38 1013.90 1014.35 1014.63 1014.67 1014.42 1013.88 1013.08 1012.11 1011.09 1010.14 1009.36 1008.83 1008.59 1008.64 1008.91 1009.36 1009.89 1010.44 1010.96 1011.42 1011.82 1012.19 1012.55 1012.91 1013.29 1013.68 1014.05 1014.37 1014.62 1014.76 1014.79 1014.74 1014.63 1014.50 1014.39 1014.33 1014.32
1011.35 1011.43 1011.59 1011.87 1012.28 1012.81 1013.42 1014.03 1014.54 1014.85 1014.90 1014.63 1014.05 1013.19 1012.17 1011.08 1010.06 1009.23 1008.65 1008.38 1008.39 1008.65 1009.09 1009.62 1010.16 1010.68 1011.13 1011.53 1011.89 1012.23 1012.57 1012.92 1013.28 1013.63 1013.94 1014.17 1014.32 1014.38 1014.36 1014.29 1014.19 1014.12 1014.08 1014.10
1011.08 1011.17 1011.36 1011.68 1012.15 1012.75 1013.41 1014.05 1014.58 1014.90 1014.93 1014.64 1014.02 1013.14 1012.08 1010.97 1009.94 1009.09 1008.50 1008.22 1008.22 1008.47 1008.89 1009.40 1009.94 1010.44 1010.88 1011.27 1011.60 1011.91 1012.22 1012.54 1012.86 1013.18 1013.47 1013.71 1013.87 1013.96 1013.97 1013.95 1013.91 1013.87 1013.87 1013.90
1010.96 1011.06 1011.26 1011.61 1012.09 1012.68 1013.33 1013.95 1014.44 1014.71 1014.70 1014.37 1013.73 1012.84 1011.79 1010.71 1009.70 1008.88 1008.32 1008.04 1008.05 1008.29 1008.69 1009.19 1009.70 1010.19 1010.61 1010.98 1011.29 1011.58 1011.86 1012.15 1012.44 1012.74 1013.02 1013.25 1013.44 1013.56 1013.62 1013.65 1013.66 1013.67 1013.70 1013.76
1011.02 1011.12 1011.32 1011.64 1012.08 1012.61 1013.17 1013.69 1014.09 1014.27 1014.18 1013.80 1013.15 1012.28 1011.28 1010.25 1009.31 1008.55 1008.04 1007.79 1007.81 1008.04 1008.43 1008.90 1009.39 1009.85 1010.26 1010.61 1010.91 1011.19 1011.46 1011.74 1012.03 1012.32 1012.59 1012.84 1013.04 1013.20 1013.31 1013.39 1013.44 1013.50 1013.57 1013.65
1011.22 1011.31 1011.49 1011.75 1012.10 1012.51 1012.94 1013.31 1013.55 1013.61 1013.43 1012.99 1012.33 1011.49 1010.55 1009.61 1008.76 1008.08 1007.63 1007.42 1007.45 1007.67 1008.03 1008.47 1008.93 1009.37 1009.76 1010.12 1010.43 1010.72 1011.01 1011.30 1011.61 1011.91 1012.20 1012.46 1012.69 1012.88 1013.02 1013.14 1013.24 1013.33 1013.42 1013.52
1011.50 1011.57 1011.70 1011.88 1012.12 1012.38 1012.63 1012.82 1012.89 1012.80 1012.51 1012.02 1011.35 1010.55 1009.69 1008.84 1008.08 1007.49 1007.09 1006.92 1006.94 1007.14 1007.46 1007.86 1008.29 1008.71 1009.10 1009.47 1009.82 1010.15 1010.48 1010.82 1011.16 1011.49 1011.81 1012.10 1012.35 1012.56 1012.73 1012.87 1013.00 1013.11 1013.22 1013.32
1011.75 1011.81 1011.88 1011.98 1012.08 1012.19 1012.26 1012.27 1012.17 1011.93 1011.55 1011.00 1010.33 1009.57 1008.78 1008.02 1007.35 1006.82 1006.47 1006.31 1006.32 1006.47 1006.75 1007.10 1007.48 1007.89 1008.29 1008.69 1009.08 1009.47 1009.87 1010.27 1010.67 1011.05 1011.40 1011.71 1011.99 1012.21 1012.39 1012.54 1012.67 1012.79 1012.90 1013.00
1011.91 1011.93 1011.96 1011.97 1011.97 1011.94 1011.86 1011.71 1011.47 1011.11 1010.64 1010.06 1009.39 1008.67 1007.94 1007.25 1006.65 1006.17 1005.84 1005.66 1005.63 1005.73 1005.94 1006.23 1006.57 1006.96 1007.37 1007.81 1008.26 1008.73 1009.20 1009.67 1010.13 1010.56 1010.95 1011.28 1011.57 1011.80 1011.98 1012.12 1012.24 1012.35 1012.45 1012.55
1011.91 1011.90 1011.88 1011.84 1011.76 1011.63 1011.44 1011.18 1010.84 1010.41 1009.88 1009.28 1008.63 1007.94 1007.26 1006.63 1006.07 1005.61 1005.27 1005.05 1004.96 1004.99 1005.13 1005.35 1005.65 1006.02 1006.44 1006.91 1007.42 1007.95 1008.50 1009.04 1009.55 1010.02 1010.44 1010.80 1011.08 1011.31 1011.48 1011.61 1011.72 1011.81 1011.89 1011.97
1011.75 1011.71 1011.66 1011.57 1011.45 1011.27 1011.03 1010.71 1010.32 1009.86 1009.33 1008.73 1008.10 1007.46 1006.82 1006.21 1005.67 1005.21 1004.84 1004.57 1004.41 1004.35 1004.41 1004.57 1004.82 1005.17 1005.59 1006.09 1006.64 1007.22 1007.82 1008.41 1008.96 1009.47 1009.90 1010.26 1010.55 1010.77 1010.93 1011.05 1011.14 1011.22 1011.28 1011.35
1011.48 1011.40 1011.31 1011.20 1011.06 1010.87 1010.62 1010.31 1009.93 1009.48 1008.97 1008.41 1007.82 1007.21 1006.60 1006.02 1005.47 1004.99 1004.58 1004.25 1004.01 1003.88 1003.86 1003.95 1004.16 1004.48 1004.89 1005.40 1005.97 1006.58 1007.21 1007.82 1008.39 1008.91 1009.35 1009.71 1009.99 1010.21 1010.37 1010.49 1010.58 1010.65 1010.71 1010.76
1011.17 1011.03 1010.90 1010.78 1010.64 1010.46 1010.24 1009.96 1009.62 1009.22 1008.77 1008.26 1007.72 1007.15 1006.58 1006.01 1005.46 1004.95 1004.49 1004.10 1003.80 1003.60 1003.51 1003.54 1003.70 1003.99 1004.38 1004.88 1005.45 1006.06 1006.69 1007.30 1007.87 1008.38 1008.82 1009.18 1009.47 1009.69 1009.86 1010.00 1010.11 1010.19 1010.25 1010.29
1010.88 1010.66 1010.49 1010.34 1010.21 1010.06 1009.88 1009.66 1009.39 1009.06 1008.67 1008.23 1007.75 1007.22 1006.67 1006.11 1005.56 1005.02 1004.53 1004.09 1003.73 1003.47 1003.32 1003.31 1003.42 1003.68 1004.05 1004.52 1005.07 1005.66 1006.27 1006.86 1007.42 1007.91 1008.34 1008.70 1009.00 1009.25 1009.46 1009.63 1009.77 1009.88 1009.96 1010.00
1010.67 1010.36 1010.12 1009.95 1009.81 1009.68 1009.55 1009.40 1009.19 1008.94 1008.63 1008.25 1007.82 1007.34 1006.82 1006.27 1005.71 1005.15 1004.63 1004.15 1003.75 1003.44 1003.25 1003.19 1003.28 1003.49 1003.83 1004.27 1004.79 1005.35 1005.93 1006.49 1007.02 1007.50 1007.92 1008.30 1008.62 1008.91 1009.17 1009.40 1009.59 1009.75 1009.86 1009.92
1010.54 1010.13 1009.83 1009.62 1009.47 1009.36 1009.27 1009.16 1009.02 1008.84 1008.59 1008.27 1007.89 1007.45 1006.95 1006.41 1005.85 1005.28 1004.72 1004.22 1003.78 1003.44 1003.21 1003.12 1003.17 1003.35 1003.66 1004.06 1004.55 1005.08 1005.62 1006.16 1006.67 1007.14 1007.57 1007.97 1008.34 1008.68 1008.99 1009.29 1009.55 1009.77 1009.93 1010.01
1010.46 1009.98 1009.62 1009.37 1009.21 1009.11 1009.04 1008.98 1008.89 1008.75 1008.55 1008.28 1007.93 1007.52 1007.03 1006.50 1005.92 1005.34 1004.77 1004.23 1003.77 1003.39 1003.14 1003.01 1003.03 1003.18 1003.45 1003.83 1004.28 1004.79 1005.31 1005.83 1006.34 1006.82 1007.27 1007.71 1008.12 1008.52 1008.90 1009.27 1009.60 1009.88 1010.09 1010.21
1010.38 1009.86 1009.47 1009.20 1009.03 1008.94 1008.89 1008.85 1008.79 1008.69 1008.52 1008.27 1007.95 1007.54 1007.06 1006.52 1005.94 1005.33 1004.73 1004.17 1003.67 1003.26 1002.97 1002.81 1002.79 1002.91 1003.16 1003.51 1003.95 1004.44 1004.96 1005.49 1006.01 1006.52 1007.00 1007.48 1007.94 1008.40 1008.85 1009.27 1009.67 1010.01 1010.27 1010.43
1010.26 1009.74 1009.36 1009.10 1008.95 1008.88 1008.85 1008.82 1008.78 1008.68 1008.52 1008.28 1007.96 1007.55 1007.06 1006.50 1005.89 1005.25 1004.62 1004.02 1003.47 1003.02 1002.69 1002.49 1002.44 1002.53 1002.75 1003.09 1003.52 1004.02 1004.56 1005.11 1005.66 1006.21 1006.74 1007.26 1007.78 1008.28 1008.78 1009.25 1009.69 1010.08 1010.38 1010.59
Thickness
5732 5729 5724 5733 5741 5742 5742 5739 5739 5745 5752 5745 5746 5750 5759 5760 5755 5754 5754 5753 5752 5750 5752 5748 5742 5737 5733 5728 5724 5721 5717 5713 5708 5704 5701 5697 5693 5690 5686 5682 5678 5676 5675 5674
5722 5724 5738 5743 5741 5738 5739 5736 5739 5744 5748 5745 5746 5750 5760 5762 5757 5758 5758 5756 5753 5751 5749 5743 5741 5738 5734 5729 5725 5723 5718 5712 5708 5702 5700 5695 5691 5688 5685 5680 5678 5675 5673 5672
5725 5734 5740 5735 5732 5732 5736 5736 5738 5737 5741 5744 5740 5745 5755 5760 5759 5758 5758 5760 5759 5753 5750 5745 5741 5738 5734 5729 5725 5721 5717 5712 5707 5702 5698 5694 5691 5687 5685 5680 5677 5674 5672 5670
5727 5733 5733 5732 5733 5735 5731 5741 5738 5735 5733 5736 5734 5728 5750 5755 5752 5754 5755 5756 5757 5755 5752 5748 5743 5738 5735 5731 5727 5723 5718 5712 5707 5702 5697 5693 5688 5685 5682 5679 5677 5675 5672 5670
5724 5730 5731 5730 5736 5737 5735 5736 5736 5735 5733 5732 5736 5727 5745 5750 5748 5756 5759 5758 5757 5756 5753 5749 5745 5741 5737 5733 5727 5722 5718 5712 5706 5701 5696 5692 5689 5686 5684 5680 5677 5676 5674 5671
5727 5736 5738 5738 5738 5739 5732 5733 5732 5733 5733 5720 5731 5724 5733 5751 5752 5756 5760 5760 5758 5756 5753 5750 5746 5741 5736 5732 5726 5722 5716 5711 5706 5701 5697 5693 5689 5685 5683 5680 5678 5676 5675 5673
5720 5728 5736 5739 5731 5730 5731 5727 5717 5716 5716 5720 5728 5722 5735 5755 5756 5755 5757 5760 5760 5757 5753 5749 5744 5740 5736 5731 5727 5722 5717 5712 5707 5702 5699 5695 5691 5687 5684 5682 5679 5676 5676 5674
5716 5717 5732 5736 5737 5733 5733 5732 5715 5704 5709 5721 5725 5723 5745 5757 5757 5756 5757 5759 5760 5757 5754 5750 5747 5742 5738 5734 5729 5724 5719 5713 5709 5704 5701 5697 5693 5689 5687 5683 5680 5678 5676 5675
5725 5721 5732 5736 5740 5739 5729 5730 5735 5723 5718 5710 5725 5734 5748 5756 5753 5753 5754 5755 5756 5756 5753 5751 5748 5745 5741 5736 5730 5726 5721 5715 5711 5706 5702 5698 5695 5691 5688 5685 5682 5680 5678 5675
5737 5724 5728 5730 5734 5729 5734 5734 5723 5715 5702 5700 5713 5721 5731 5744 5749 5752 5752 5753 5755 5755 5754 5752 5749 5745 5742 5738 5733 5728 5723 5718 5713 5708 5704 5700 5696 5693 5688 5686 5682 5681 5679 5676
5739 5730 5724 5727 5726 5728 5721 5721 5722 5721 5714 5700 5700 5719 5745 5744 5747 5750 5753 5755 5755 5754 5753 5752 5749 5747 5744 5739 5734 5729 5724 5719 5714 5710 5706 5701 5698 5694 5690 5687 5684 5681 5680 5678
5736 5735 5726 5729 5733 5733 5730 5728 5722 5710 5710 5709 5704 5719 5754 5749 5749 5749 5751 5755 5755 5755 5753 5752 5749 5747 5743 5739 5735 5731 5726 5721 5716 5712 5708 5704 5700 5695 5692 5689 5686 5683 5681 5679
5733 5728 5717 5716 5718 5721 5721 5721 5720 5719 5714 5709 5701 5719 5752 5749 5748 5750 5750 5754 5754 5752 5752 5750 5748 5745 5742 5739 5736 5732 5728 5724 5718 5713 5709 5705 5701 5697 5694 5691 5687 5684 5682 5679
5733 5729 5719 5708 5716 5722 5718 5715 5712 5711 5708 5710 5714 5724 5742 5746 5748 5751 5753 5754 5755 5754 5752 5750 5747 5745 5744 5741 5738 5734 5729 5725 5720 5714 5710 5706 5703 5699 5696 5693 5689 5686 5683 5680
5729 5723 5726 5725 5726 5721 5718 5717 5713 5710 5716 5713 5722 5728 5739 5747 5750 5753 5755 5755 5753 5753 5752 5751 5749 5748 5745 5742 5739 5737 5732 5726 5722 5716 5712 5708 5706 5702 5697 5693 5689 5686 5683 5680
5724 5719 5720 5717 5722 5717 5714 5719 5719 5716 5717 5718 5721 5728 5747 5753 5754 5753 5754 5754 5753 5755 5755 5754 5752 5751 5748 5744 5740 5737 5733 5728 5723 5718 5714 5710 5706 5703 5698 5694 5691 5687 5684 5681
5719 5715 5709 5709 5718 5709 5708 5724 5723 5722 5725 5721 5718 5732 5746 5747 5749 5751 5755 5757 5757 5760 5759 5757 5755 5753 5752 5749 5745 5740 5736 5731 5725 5721 5716 5712 5707 5703 5699 5696 5691 5687 5684 5682
5714 5709 5706 5704 5703 5689 5722 5736 5728 5722 5724 5726 5726 5733 5738 5742 5749 5755 5758 5758 5760 5762 5761 5759 5757 5755 5754 5752 5748 5744 5738 5732 5726 5722 5718 5714 5708 5704 5700 5696 5692 5689 5686 5683
5710 5705 5699 5697 5692 5700 5721 5729 5724 5718 5719 5725 5725 5729 5736 5743 5747 5756 5762 5761 5762 5764 5764 5762 5760 5758 5755 5752 5748 5743 5737 5732 5727 5723 5718 5715 5710 5705 5701 5697 5694 5692 5688 5684
5698 5700 5696 5692 5683 5686 5712 5724 5726 5718 5709 5718 5720 5722 5728 5732 5733 5747 5756 5758 5760 5761 5761 5760 5758 5757 5753 5750 5746 5740 5736 5731 5726 5723 5718 5715 5711 5706 5701 5698 5695 5693 5688 5684
5690 5687 5686 5687 5684 5697 5714 5716 5714 5697 5699 5710 5714 5716 5720 5721 5728 5739 5747 5751 5754 5754 5755 5754 5753 5750 5748 5746 5741 5737 5734 5730 5727 5722 5717 5712 5708 5704 5701 5697 5694 5690 5687 5684
5690 5687 5685 5685 5678 5685 5703 5703 5697 5696 5704 5705 5707 5710 5713 5719 5727 5734 5739 5743 5746 5746 5746 5747 5745 5744 5743 5740 5737 5734 5731 5729 5723 5716 5711 5708 5704 5701 5698 5693 5690 5688 5685 5682
5683 5686 5685 5685 5687 5691 5693 5691 5691 5692 5693 5696 5698 5703 5707 5712 5719 5726 5731 5735 5738 5739 5739 5740 5740 5738 5736 5734 5733 5731 5727 5723 5716 5711 5706 5703 5700 5696 5693 5690 5687 5685 5682 5681
5676 5674 5670 5673 5682 5682 5681 5681 5680 5681 5682 5686 5690 5694 5699 5703 5710 5716 5722 5727 5730 5733 5733 5733 5732 5731 5730 5729 5727 5726 5722 5716 5711 5707 5703 5698 5696 5691 5688 5684 5683 5680 5678 5676
5656 5657 5657 5659 5668 5669 5670 5667 5667 5668 5672 5676 5680 5684 5688 5692 5699 5705 5712 5717 5721 5724 5726 5726 5726 5727 5727 5723 5720 5718 5714 5711 5706 5702 5697 5694 5690 5687 5682 5678 5673 5671 5667 5665
5644 5641 5639 5644 5650 5648 5652 5654 5653 5653 5656 5660 5665 5671 5677 5681 5687 5694 5701 5707 5712 5716 5719 5720 5721 5722 5721 5718 5715 5711 5708 5705 5701 5696 5692 5687 5683 5679 5675 5669 5662 5654 5654 5650